| time (UTC) | temp F | wind direction | speed knots | gust knots | rain 1hr in | rain 24hr in | rain mn in | humidity % | barometer mb |
| 20260906233045 | 65 | 310 | 3.5 | 8.7 | 0.00 | 0.10 | 0.02 | 74 | 1000.8 |
| 20260906231542 | 64 | 313 | 5.2 | 8.7 | 0.00 | 0.10 | 0.02 | 74 | 1000.9 |
| 20260906230038 | 63 | 302 | 5.2 | 8.7 | 0.00 | 0.10 | 0.02 | 74 | 1001.2 |
| 20260906224542 | 62 | 316 | 5.2 | 10.4 | 0.00 | 0.10 | 0.02 | 77 | 1001.2 |
| 20260906223043 | 62 | 283 | 5.2 | 9.6 | 0.00 | 0.10 | 0.02 | 77 | 1001.4 |
| 20260906221540 | 62 | 271 | 7.0 | 9.6 | 0.00 | 0.10 | 0.02 | 78 | 1001.5 |
| 20260906220036 | 62 | 261 | 6.1 | 8.7 | 0.00 | 0.10 | 0.02 | 80 | 1001.4 |
| 20260906214534 | 62 | 266 | 4.3 | 7.0 | 0.00 | 0.10 | 0.02 | 81 | 1001.4 |
| 20260906213033 | 63 | 259 | 4.3 | 7.0 | 0.00 | 0.10 | 0.02 | 78 | 1001.4 |
| 20260906211534 | 64 | 228 | 1.7 | 4.3 | 0.00 | 0.10 | 0.02 | 75 | 1001.5 |
| 20260906210033 | 64 | 69 | 0.9 | 2.6 | 0.00 | 0.10 | 0.02 | 75 | 1001.3 |
| 20260906204551 | 63 | 66 | 1.7 | 5.2 | 0.00 | 0.10 | 0.02 | 76 | 1001.3 |
| 20260906203030 | 63 | 61 | 0.9 | 4.3 | 0.00 | 0.10 | 0.02 | 75 | 1001.5 |
| 20260906201529 | 63 | 83 | 1.7 | 3.5 | 0.00 | 0.10 | 0.02 | 75 | 1001.5 |
| 20260906200026 | 63 | 82 | 0.0 | 1.7 | 0.00 | 0.10 | 0.02 | 78 | 1001.5 |
| 20260906194523 | 62 | 40 | 0.0 | 1.7 | 0.00 | 0.10 | 0.02 | 80 | 1001.5 |
| 20260906193023 | 61 | 40 | 0.0 | 2.6 | 0.00 | 0.10 | 0.02 | 80 | 1001.7 |
| 20260906191521 | 61 | 40 | 0.0 | 3.5 | 0.00 | 0.10 | 0.02 | 81 | 1001.9 |
| 20260906190019 | 61 | 63 | 2.6 | 5.2 | 0.00 | 0.10 | 0.02 | 83 | 1001.9 |
| 20260906184518 | 61 | 29 | 2.6 | 8.7 | 0.00 | 0.10 | 0.02 | 85 | 1001.9 |
| 20260906183018 | 60 | 58 | 3.5 | 8.7 | 0.00 | 0.10 | 0.02 | 89 | 1001.8 |
| 20260906181518 | 59 | 24 | 6.1 | 9.6 | 0.00 | 0.10 | 0.02 | 90 | 1002.0 |
| 20260906180009 | 59 | 31 | 6.1 | 9.6 | 0.00 | 0.10 | 0.02 | 92 | 1002.2 |
| 20260906174507 | 58 | 44 | 7.0 | 11.3 | 0.00 | 0.10 | 0.02 | 93 | 1002.3 |
| 20260906173006 | 57 | 48 | 9.6 | 12.2 | 0.00 | 0.10 | 0.02 | 94 | 1002.4 |
| 20260906171504 | 56 | 42 | 8.7 | 12.2 | 0.00 | 0.10 | 0.02 | 93 | 1002.8 |
| 20260906170002 | 55 | 345 | 6.1 | 10.4 | 0.00 | 0.10 | 0.02 | 92 | 1003.8 |
| 20260906164501 | 55 | 279 | 6.1 | 9.6 | 0.00 | 0.10 | 0.02 | 92 | 1003.9 |
| 20260906163002 | 55 | 289 | 4.3 | 7.8 | 0.00 | 0.10 | 0.02 | 92 | 1004.1 |
| 20260906161601 | 55 | 317 | 3.5 | 7.8 | 0.00 | 0.10 | 0.02 | 92 | 1003.8 |
| 20260906160100 | 54 | 333 | 4.3 | 8.7 | 0.01 | 0.10 | 0.02 | 92 | 1003.7 |
| 20260906154600 | 54 | 348 | 6.1 | 9.6 | 0.01 | 0.10 | 0.02 | 92 | 1004.0 |
| 20260906153059 | 53 | 344 | 7.0 | 11.3 | 0.01 | 0.10 | 0.02 | 92 | 1004.3 |
| 20260906151601 | 53 | 347 | 5.2 | 13.0 | 0.02 | 0.10 | 0.02 | 91 | 1004.5 |
| 20260906150110 | 53 | 332 | 9.6 | 14.8 | 0.01 | 0.09 | 0.01 | 92 | 1004.3 |
| 20260906144556 | 53 | 306 | 8.7 | 15.6 | 0.01 | 0.09 | 0.01 | 91 | 1004.6 |
| 20260906143056 | 54 | 312 | 10.4 | 18.2 | 0.01 | 0.09 | 0.01 | 90 | 1004.7 |
| 20260906141550 | 56 | 306 | 11.3 | 15.6 | 0.00 | 0.08 | 0.00 | 87 | 1004.7 |
| 20260906140057 | 58 | 290 | 8.7 | 14.8 | 0.00 | 0.08 | 0.00 | 83 | 1004.4 |
| 20260906134548 | 58 | 62 | 0.9 | 3.5 | 0.00 | 0.13 | 0.00 | 86 | 1004.3 |
| 20260906133109 | 58 | 45 | 0.0 | 1.7 | 0.00 | 0.13 | 0.00 | 85 | 1004.1 |
| 20260906131545 | 58 | 26 | 2.6 | 7.8 | 0.00 | 0.13 | 0.00 | 84 | 1003.8 |
| 20260906130059 | 57 | 27 | 3.5 | 8.7 | 0.00 | 0.13 | 0.00 | 85 | 1004.1 |
| 20260906124544 | 57 | 300 | 3.5 | 8.7 | 0.00 | 0.14 | 0.00 | 85 | 1004.4 |
| 20260906123043 | 57 | 355 | 3.5 | 8.7 | 0.00 | 0.14 | 0.00 | 86 | 1004.5 |
| 20260906121543 | 57 | 319 | 7.0 | 12.2 | 0.00 | 0.14 | 0.00 | 84 | 1004.3 |
| 20260906120041 | 58 | 51 | 11.3 | 17.4 | 0.00 | 0.14 | 0.00 | 86 | 1003.4 |
| 20260906114545 | 57 | 33 | 7.0 | 10.4 | 0.00 | 0.14 | 0.00 | 84 | 1004.0 |
| 20260906113035 | 57 | 44 | 6.1 | 9.6 | 0.00 | 0.14 | 0.00 | 83 | 1004.4 |
| 20260906111538 | 57 | 44 | 7.8 | 12.2 | 0.00 | 0.14 | 0.00 | 82 | 1004.3 |
| 20260906110034 | 58 | 44 | 6.1 | 10.4 | 0.00 | 0.14 | 0.00 | 83 | 1004.2 |
| 20260906104534 | 58 | 36 | 7.0 | 12.2 | 0.00 | 0.14 | 0.00 | 82 | 1004.2 |
| 20260906103030 | 57 | 43 | 6.1 | 9.6 | 0.00 | 0.14 | 0.00 | 84 | 1004.4 |
| 20260906101530 | 57 | 47 | 5.2 | 10.4 | 0.00 | 0.14 | 0.00 | 86 | 1004.4 |
| 20260906100037 | 57 | 43 | 8.7 | 12.2 | 0.00 | 0.14 | 0.00 | 86 | 1004.1 |
| 20260906094530 | 56 | 22 | 9.6 | 13.9 | 0.00 | 0.14 | 0.00 | 88 | 1004.3 |
| 20260906093030 | 56 | 349 | 9.6 | 15.6 | 0.00 | 0.14 | 0.00 | 87 | 1004.3 |
| 20260906091527 | 57 | 355 | 9.6 | 14.8 | 0.00 | 0.14 | 0.00 | 87 | 1004.4 |
| 20260906090023 | 57 | 11 | 8.7 | 13.0 | 0.00 | 0.14 | 0.00 | 87 | 1004.8 |
| 20260906084520 | 57 | 326 | 7.0 | 13.0 | 0.00 | 0.14 | 0.00 | 86 | 1005.3 |
| 20260906083016 | 57 | 335 | 7.0 | 13.0 | 0.00 | 0.14 | 0.00 | 87 | 1005.6 |
| 20260906081518 | 56 | 325 | 7.8 | 13.0 | 0.00 | 0.14 | 0.00 | 88 | 1005.7 |
| 20260906080013 | 57 | 295 | 7.0 | 10.4 | 0.00 | 0.14 | 0.00 | 88 | 1006.0 |
| 20260906074509 | 57 | 312 | 1.7 | 4.3 | 0.00 | 0.14 | 0.00 | 88 | 1005.4 |
| 20260906073008 | 57 | 360 | 2.6 | 8.7 | 0.00 | 0.14 | 0.00 | 87 | 1005.5 |
| 20260906071509 | 56 | 17 | 5.2 | 12.2 | 0.00 | 0.14 | 0.00 | 87 | 1005.4 |
| 20260906070006 | 56 | 13 | 7.8 | 12.2 | 0.00 | 0.14 | 0.00 | 88 | 1005.5 |
| 20260906064505 | 57 | 34 | 7.0 | 11.3 | 0.00 | 0.14 | 0.00 | 87 | 1005.6 |
| 20260906063003 | 57 | 344 | 7.0 | 11.3 | 0.00 | 0.14 | 0.00 | 85 | 1006.0 |
| 20260906061603 | 57 | 342 | 9.6 | 13.9 | 0.00 | 0.14 | 0.00 | 85 | 1006.1 |
| 20260906060056 | 57 | 317 | 7.0 | 11.3 | 0.00 | 0.14 | 0.00 | 87 | 1006.6 |
| 20260906054604 | 56 | 355 | 6.1 | 11.3 | 0.00 | 0.14 | 0.14 | 87 | 1006.0 |
| 20260906053100 | 56 | 360 | 7.8 | 12.2 | 0.00 | 0.14 | 0.14 | 89 | 1005.7 |
| 20260906051610 | 55 | 5 | 3.5 | 7.0 | 0.00 | 0.14 | 0.14 | 89 | 1005.6 |
| 20260906050054 | 56 | 355 | 4.3 | 7.8 | 0.00 | 0.14 | 0.14 | 87 | 1005.6 |
| 20260906044601 | 57 | 355 | 4.3 | 8.7 | 0.00 | 0.14 | 0.14 | 87 | 1005.9 |
| 20260906043053 | 57 | 31 | 7.0 | 9.6 | 0.00 | 0.14 | 0.14 | 87 | 1005.7 |
| 20260906041553 | 56 | 360 | 11.3 | 14.8 | 0.02 | 0.14 | 0.14 | 86 | 1004.9 |
| 20260906040128 | 56 | 5 | 11.3 | 14.8 | 0.08 | 0.14 | 0.14 | 87 | 1004.5 |
| 20260906034603 | 57 | 345 | 10.4 | 15.6 | 0.08 | 0.14 | 0.14 | 86 | 1004.7 |
| 20260906033104 | 58 | 346 | 8.7 | 13.0 | 0.08 | 0.14 | 0.14 | 83 | 1005.1 |
| 20260906031549 | 60 | 314 | 2.6 | 7.0 | 0.06 | 0.12 | 0.12 | 77 | 1005.8 |
| 20260906030047 | 61 | 196 | 4.3 | 7.0 | 0.00 | 0.06 | 0.06 | 69 | 1006.4 |
| 20260906024554 | 61 | 15 | 6.1 | 10.4 | 0.00 | 0.06 | 0.06 | 67 | 1004.2 |
| 20260906023050 | 60 | 34 | 5.2 | 8.7 | 0.00 | 0.06 | 0.06 | 70 | 1003.5 |
| 20260906021545 | 61 | 13 | 6.1 | 7.8 | 0.00 | 0.06 | 0.06 | 68 | 1003.4 |
| 20260906020043 | 62 | 360 | 5.2 | 8.7 | 0.00 | 0.06 | 0.06 | 66 | 1003.4 |
| 20260906014543 | 63 | 11 | 5.2 | 9.6 | 0.00 | 0.06 | 0.06 | 65 | 1003.4 |
| 20260906013043 | 64 | 355 | 7.0 | 11.3 | 0.00 | 0.06 | 0.06 | 64 | 1003.5 |
| 20260906011542 | 64 | 355 | 7.0 | 12.2 | 0.00 | 0.06 | 0.06 | 62 | 1003.6 |
| 20260906010042 | 65 | 9 | 7.8 | 11.3 | 0.00 | 0.06 | 0.06 | 60 | 1003.5 |
| 20260906004542 | 66 | 360 | 8.7 | 13.0 | 0.00 | 0.06 | 0.06 | 57 | 1003.5 |
| 20260906003041 | 67 | 355 | 8.7 | 13.9 | 0.00 | 0.06 | 0.06 | 55 | 1003.6 |
| 20260906001540 | 69 | 314 | 10.4 | 15.6 | 0.00 | 0.06 | 0.06 | 53 | 1003.7 |
| 20260906000040 | 71 | 337 | 11.3 | 16.5 | 0.00 | 0.06 | 0.06 | 50 | 1003.6 |
| 20260905234539 | 71 | 331 | 10.4 | 14.8 | 0.00 | 0.06 | 0.06 | 49 | 1003.8 |